Tracking 30744 objects as of 24-Jun-2025
HD Live streaming from Space Station
objects crossing your sky now

STARLINK-34353

Track STARLINK-34353 now!
10-day predictions
STARLINK-34353 is classified as:


NORAD ID: 64278
Int'l Code: 2025-120Y
Perigee: 424.7 km
Apogee: 427.1 km
Inclination: 53.2 °
Period: 92.9 minutes
Semi major axis: 6796 km
RCS: Unknown
Launch date: June 4, 2025
Source: United States (US)
Launch site: AIR FORCE WESTERN TEST RANGE (AFWTR)
Your satellite tracking list
Your tracking list is empty




NASA's NSSDC Master Catalog

Two Line Element Set (TLE):
1 64278U 25120Y   25174.91668981  .00012631  00000-0  23483-3 0  9990
2 64278  53.1598 243.9955 0001761  91.1651 200.6185 15.49303795  4265
Source of the keplerian elements: AFSPC